TimeMST,TemperatureF,Dew PointF,Humidity,Sea Level PressureIn,VisibilityMPH,Wind Direction,Wind SpeedMPH,Gust SpeedMPH,PrecipitationIn,Events,Conditions,WindDirDegrees,DateUTC
12:53 AM,43.0,32.0,65,29.71,10.0,North,5.8,-,N/A,,Overcast,350,2012-11-18 07:53:00
1:53 AM,41.0,30.9,67,29.70,10.0,NNW,4.6,-,N/A,,Partly Cloudy,330,2012-11-18 08:53:00
2:53 AM,41.0,32.0,70,29.69,10.0,ESE,13.8,18.4,N/A,,Scattered Clouds,120,2012-11-18 09:53:00
3:53 AM,41.0,32.0,70,29.68,10.0,Calm,Calm,-,N/A,,Clear,0,2012-11-18 10:53:00
4:53 AM,41.0,30.9,67,29.69,10.0,Calm,Calm,-,N/A,,Clear,0,2012-11-18 11:53:00
5:53 AM,41.0,32.0,70,29.72,10.0,NW,3.5,-,N/A,,Partly Cloudy,320,2012-11-18 12:53:00
6:46 AM,39.2,32.0,75,29.79,10.0,West,16.1,25.3,N/A,,Mostly Cloudy,260,2012-11-18 13:46:00
6:53 AM,39.9,33.1,77,29.79,10.0,West,6.9,25.3,N/A,,Overcast,260,2012-11-18 13:53:00
7:53 AM,37.0,33.1,86,29.82,10.0,SSE,8.1,-,0.00,,Partly Cloudy,150,2012-11-18 14:53:00
8:53 AM,39.9,30.9,70,29.82,10.0,SSW,13.8,-,N/A,,Clear,200,2012-11-18 15:53:00
9:53 AM,41.0,30.9,67,29.82,10.0,SSW,8.1,-,N/A,,Clear,210,2012-11-18 16:53:00
10:53 AM,43.0,30.0,60,29.84,10.0,WSW,10.4,-,N/A,,Partly Cloudy,240,2012-11-18 17:53:00
11:53 AM,45.0,24.1,44,29.84,10.0,West,12.7,-,N/A,,Clear,260,2012-11-18 18:53:00
12:53 PM,44.1,16.0,32,29.85,10.0,West,16.1,-,N/A,,Clear,260,2012-11-18 19:53:00
1:53 PM,43.0,16.0,34,29.87,10.0,SW,8.1,-,N/A,,Clear,230,2012-11-18 20:53:00
2:53 PM,43.0,15.1,32,29.89,10.0,WSW,6.9,-,N/A,,Clear,250,2012-11-18 21:53:00
3:53 PM,39.9,16.0,38,29.91,10.0,WSW,6.9,-,N/A,,Partly Cloudy,240,2012-11-18 22:53:00
4:53 PM,39.0,15.1,38,29.94,10.0,SSW,8.1,-,N/A,,Scattered Clouds,200,2012-11-18 23:53:00
5:53 PM,36.0,19.0,50,29.96,10.0,SSE,6.9,-,N/A,,Overcast,150,2012-11-19 00:53:00
6:53 PM,35.1,17.1,48,29.97,10.0,South,6.9,-,N/A,,Scattered Clouds,190,2012-11-19 01:53:00
7:53 PM,30.9,26.1,82,30.02,10.0,SSW,5.8,-,N/A,,Clear,210,2012-11-19 02:53:00
8:53 PM,32.0,25.0,75,30.02,10.0,SSW,8.1,-,N/A,,Clear,200,2012-11-19 03:53:00
9:53 PM,30.0,23.0,75,30.03,10.0,SSW,8.1,-,N/A,,Clear,210,2012-11-19 04:53:00
10:53 PM,28.0,19.9,72,30.05,10.0,SW,9.2,-,N/A,,Clear,230,2012-11-19 05:53:00
11:53 PM,28.0,19.9,72,30.05,10.0,SSW,8.1,-,N/A,,Clear,200,2012-11-19 06:53:00